TimeEST,TemperatureF,Dew PointF,Humidity,Sea Level PressureIn,VisibilityMPH,Wind Direction,Wind SpeedMPH,Gust SpeedMPH,PrecipitationIn,Events,Conditions,WindDirDegrees,DateUTC
12:15 AM,26.6,5.0,40,30.09,10.0,NW,20.7,29.9,N/A,,Mostly Cloudy,310,2013-02-18 05:15:00
12:35 AM,26.6,5.0,40,30.11,10.0,WNW,20.7,31.1,N/A,,Mostly Cloudy,290,2013-02-18 05:35:00
12:55 AM,26.6,3.2,37,30.13,10.0,WNW,25.3,32.2,N/A,,Overcast,300,2013-02-18 05:55:00
1:15 AM,24.8,5.0,43,30.14,10.0,NW,15.0,31.1,N/A,,Overcast,310,2013-02-18 06:15:00
1:35 AM,24.8,5.0,43,30.14,10.0,NW,18.4,29.9,N/A,,Overcast,310,2013-02-18 06:35:00
1:55 AM,24.8,5.0,43,30.14,10.0,NW,19.6,33.4,N/A,,Mostly Cloudy,310,2013-02-18 06:55:00
2:15 AM,24.8,5.0,43,30.16,10.0,WNW,17.3,34.5,N/A,,Overcast,300,2013-02-18 07:15:00
2:35 AM,24.8,6.8,46,30.16,10.0,NW,15.0,26.5,N/A,,Mostly Cloudy,310,2013-02-18 07:35:00
2:55 AM,24.8,6.8,46,30.17,10.0,WNW,15.0,26.5,N/A,,Mostly Cloudy,290,2013-02-18 07:55:00
3:15 AM,24.8,6.8,46,30.17,10.0,WNW,16.1,27.6,N/A,,Scattered Clouds,300,2013-02-18 08:15:00
3:35 AM,24.8,6.8,46,30.18,10.0,NW,16.1,23.0,N/A,,Scattered Clouds,310,2013-02-18 08:35:00
3:55 AM,24.8,6.8,46,30.18,10.0,NW,16.1,24.2,N/A,,Partly Cloudy,310,2013-02-18 08:55:00
4:15 AM,24.8,6.8,46,30.19,10.0,WNW,11.5,27.6,N/A,,Partly Cloudy,300,2013-02-18 09:15:00
4:55 AM,24.8,6.8,46,30.22,10.0,WNW,12.7,28.8,N/A,,Partly Cloudy,290,2013-02-18 09:55:00
5:15 AM,24.8,6.8,46,30.23,10.0,WNW,15.0,24.2,N/A,,Scattered Clouds,290,2013-02-18 10:15:00
5:35 AM,23.0,6.8,50,30.25,10.0,WNW,13.8,24.2,N/A,,Partly Cloudy,290,2013-02-18 10:35:00
5:55 AM,23.0,6.8,50,30.26,10.0,WNW,11.5,21.9,N/A,,Clear,290,2013-02-18 10:55:00
6:15 AM,23.0,6.8,50,30.26,10.0,WNW,15.0,19.6,N/A,,Clear,290,2013-02-18 11:15:00
6:35 AM,23.0,6.8,50,30.27,10.0,WNW,15.0,21.9,N/A,,Clear,300,2013-02-18 11:35:00
6:55 AM,23.0,6.8,50,30.28,10.0,WNW,15.0,21.9,N/A,,Clear,300,2013-02-18 11:55:00
7:15 AM,24.8,6.8,46,30.29,10.0,WNW,13.8,23.0,N/A,,Clear,300,2013-02-18 12:15:00
7:35 AM,24.8,6.8,46,30.30,10.0,WNW,12.7,23.0,N/A,,Clear,290,2013-02-18 12:35:00
7:55 AM,24.8,6.8,46,30.31,10.0,WNW,12.7,26.5,N/A,,Clear,290,2013-02-18 12:55:00
8:15 AM,24.8,6.8,46,30.33,10.0,WNW,12.7,23.0,N/A,,Clear,290,2013-02-18 13:15:00
8:35 AM,24.8,6.8,46,30.33,10.0,WNW,15.0,25.3,N/A,,Clear,290,2013-02-18 13:35:00
8:55 AM,26.6,8.6,47,30.34,10.0,WNW,13.8,24.2,N/A,,Clear,300,2013-02-18 13:55:00
9:15 AM,26.6,8.6,47,30.34,10.0,WNW,11.5,19.6,N/A,,Clear,300,2013-02-18 14:15:00
9:35 AM,26.6,8.6,47,30.34,10.0,WNW,16.1,24.2,N/A,,Clear,300,2013-02-18 14:35:00
9:55 AM,26.6,8.6,47,30.34,10.0,WNW,15.0,25.3,N/A,,Clear,300,2013-02-18 14:55:00
10:15 AM,26.6,8.6,47,30.35,10.0,West,13.8,24.2,N/A,,Clear,280,2013-02-18 15:15:00
10:35 AM,28.4,8.6,43,30.35,10.0,WNW,16.1,21.9,N/A,,Clear,290,2013-02-18 15:35:00
10:55 AM,28.4,10.4,47,30.35,10.0,WNW,17.3,25.3,N/A,,Clear,300,2013-02-18 15:55:00
11:15 AM,28.4,10.4,47,30.34,10.0,WNW,18.4,21.9,N/A,,Clear,290,2013-02-18 16:15:00
11:35 AM,28.4,10.4,47,30.34,10.0,West,17.3,24.2,N/A,,Clear,280,2013-02-18 16:35:00
11:55 AM,28.4,10.4,47,30.33,10.0,WNW,13.8,21.9,N/A,,Clear,300,2013-02-18 16:55:00
12:15 PM,30.2,10.4,44,30.33,10.0,West,12.7,20.7,N/A,,Clear,270,2013-02-18 17:15:00
12:35 PM,30.2,10.4,44,30.31,10.0,NW,10.4,18.4,N/A,,Clear,310,2013-02-18 17:35:00
12:55 PM,30.2,12.2,47,30.30,10.0,West,15.0,18.4,N/A,,Clear,280,2013-02-18 17:55:00
1:15 PM,30.2,10.4,44,30.30,10.0,WNW,13.8,-,N/A,,Clear,300,2013-02-18 18:15:00
1:35 PM,32.0,12.2,44,30.29,10.0,WNW,12.7,-,N/A,,Clear,300,2013-02-18 18:35:00
1:55 PM,32.0,12.2,44,30.29,10.0,West,11.5,18.4,N/A,,Clear,280,2013-02-18 18:55:00
2:15 PM,33.8,12.2,41,30.29,10.0,West,8.1,17.3,N/A,,Clear,280,2013-02-18 19:15:00
2:35 PM,33.8,12.2,41,30.28,10.0,West,11.5,-,N/A,,Clear,270,2013-02-18 19:35:00
2:55 PM,33.8,14.0,44,30.28,10.0,West,10.4,17.3,N/A,,Clear,270,2013-02-18 19:55:00
3:15 PM,35.6,14.0,41,30.28,10.0,West,11.5,-,N/A,,Clear,270,2013-02-18 20:15:00
3:35 PM,35.6,14.0,41,30.28,10.0,West,9.2,-,N/A,,Clear,280,2013-02-18 20:35:00
3:55 PM,35.6,14.0,41,30.28,10.0,West,11.5,-,N/A,,Clear,280,2013-02-18 20:55:00
4:15 PM,35.6,12.2,38,30.28,10.0,West,10.4,-,N/A,,Clear,260,2013-02-18 21:15:00
4:35 PM,35.6,12.2,38,30.27,10.0,West,6.9,-,N/A,,Clear,270,2013-02-18 21:35:00
4:55 PM,35.6,12.2,38,30.27,-9999.0,West,6.9,-,N/A,,Clear,280,2013-02-18 21:55:00
5:15 PM,35.6,12.2,38,30.27,-9999.0,West,5.8,-,N/A,,Clear,270,2013-02-18 22:15:00
5:35 PM,33.8,12.2,41,30.28,-9999.0,West,4.6,-,N/A,,Clear,280,2013-02-18 22:35:00
5:55 PM,33.8,12.2,41,30.28,-9999.0,West,4.6,-,N/A,,Clear,270,2013-02-18 22:55:00
6:15 PM,33.8,14.0,44,30.28,-9999.0,WSW,4.6,-,N/A,,Clear,250,2013-02-18 23:15:00
6:35 PM,33.8,14.0,44,30.29,-9999.0,West,5.8,-,N/A,,Clear,260,2013-02-18 23:35:00
6:55 PM,33.8,14.0,44,30.29,-9999.0,WSW,6.9,-,N/A,,Clear,240,2013-02-18 23:55:00
7:15 PM,33.8,14.0,44,30.29,10.0,WSW,4.6,-,N/A,,Clear,250,2013-02-19 00:15:00
7:35 PM,33.8,12.2,41,30.30,-9999.0,SW,4.6,-,N/A,,Clear,230,2013-02-19 00:35:00
7:55 PM,33.8,14.0,44,30.30,-9999.0,SW,4.6,-,N/A,,Clear,230,2013-02-19 00:55:00
8:15 PM,32.0,15.8,51,30.29,-9999.0,SW,3.5,-,N/A,,Clear,230,2013-02-19 01:15:00
8:35 PM,32.0,14.0,48,30.29,-9999.0,SSW,4.6,-,N/A,,Clear,200,2013-02-19 01:35:00
8:55 PM,30.2,15.8,55,30.29,-9999.0,SSW,5.8,-,N/A,,Clear,200,2013-02-19 01:55:00
9:15 PM,30.2,15.8,55,30.29,-9999.0,SSW,6.9,-,N/A,,Clear,200,2013-02-19 02:15:00
9:35 PM,30.2,15.8,55,30.28,-9999.0,SSW,6.9,-,N/A,,Clear,200,2013-02-19 02:35:00
9:55 PM,30.2,15.8,55,30.27,-9999.0,SSW,5.8,-,N/A,,Clear,200,2013-02-19 02:55:00
10:15 PM,32.0,17.6,55,30.27,-9999.0,South,6.9,-,N/A,,Clear,190,2013-02-19 03:15:00
10:35 PM,33.8,17.6,52,30.27,-9999.0,SSW,9.2,-,N/A,,Clear,200,2013-02-19 03:35:00
10:55 PM,35.6,17.6,48,30.26,10.0,South,11.5,-,N/A,,Clear,190,2013-02-19 03:55:00
11:15 PM,35.6,19.4,52,30.25,10.0,South,11.5,-,N/A,,Clear,190,2013-02-19 04:15:00
11:35 PM,35.6,19.4,52,30.25,10.0,South,9.2,-,N/A,,Clear,190,2013-02-19 04:35:00
11:55 PM,35.6,21.2,56,30.24,10.0,South,9.2,-,N/A,,Clear,180,2013-02-19 04:55:00